sat.trackr.live / text

‹ back to catalog

UNKNOWN

NORAD 81969

UNKNOWN UNKNOWN UNKNOWN

§ Identity

Operator
Country
Launch date
Launch site
Launch vehicle
Mass (kg)
RCS (m²)

External: N2YO · Heavens-Above

§ Orbital elements

Epoch: 2026-09-17T15:20:10.690368Z

Period
94.95 min
Inclination
86.6834°
Eccentricity
0.0003416
Mean motion
15.16635797 rev/d
Perigee alt
513.7 km
Apogee alt
518.4 km
Semi-major
6,894.2 km
B*
4.8286e-4
RAAN
31.6569°
Arg perigee
188.7816°
Mean anomaly
171.3367°
Rev number
48,237

§ Raw data

UNKNOWN1 81969U          26260.63901262  .00009474  00000+0  48286-3 0  99922 81969  86.6834  31.6569 0003416 188.7816 171.3367 15.16635797482375

JSON: /api/v1/satellites/81969 · /tle

For live sub-satellite position, see the globe view (requires WebGL).

§ Visibility from observer

Set your observer location to see the next 7 days of passes ≥ 10°. The values pass through the URL so the page stays shareable.

No JS? Fill the form by hand. The geolocation button needs JavaScript.